Total_Precipitation_Accumulation
1.97 2.14 2.45 2.93 3.74 4.47 5.15 5.29 5.58 5.07 4.43 3.89 3.53 3.42 3.22 2.91 2.78 2.64 2.48 2.34 2.12 2.01 2.25 2.10 2.17 2.04 2.10 2.12 2.23 2.47 2.57 2.22 2.34 2.77 2.35 1.75 1.42 1.42 1.30 1.28 1.37 1.42 1.46
2.04 2.38 2.91 3.30 3.33 3.87 4.57 4.62 4.34 4.12 3.68 3.30 3.15 2.99 2.93 2.60 2.41 2.27 2.27 2.07 1.93 1.95 1.97 2.13 2.01 1.97 2.08 2.07 2.13 2.33 2.33 2.05 2.26 2.72 2.81 2.26 1.89 1.60 1.25 1.23 1.30 1.43 1.64
1.89 2.31 2.73 3.17 3.14 3.52 3.60 3.23 3.09 3.18 3.13 2.97 2.87 2.73 2.73 2.53 2.26 2.09 2.07 1.92 1.72 1.72 1.75 1.77 1.84 1.96 1.76 1.89 2.06 2.21 2.32 2.19 2.12 2.40 2.81 2.58 2.21 1.88 1.52 1.39 1.50 1.65 1.82
1.35 1.63 1.97 2.39 2.59 2.68 2.59 2.56 2.55 2.59 2.79 2.80 2.58 2.40 2.13 2.04 1.97 1.86 1.90 1.89 1.64 1.56 1.58 1.60 1.75 1.84 1.78 1.99 1.73 1.85 2.14 2.35 2.16 2.18 2.23 2.25 2.44 2.42 2.02 1.66 1.55 1.68 1.83
1.04 1.18 1.27 1.49 1.77 2.02 2.09 2.08 2.36 2.46 2.49 2.48 2.44 2.46 2.20 2.03 1.98 2.09 2.28 2.20 1.86 1.54 1.38 1.49 1.64 1.75 1.80 1.88 1.82 1.92 1.91 1.99 2.04 2.12 2.10 2.21 2.41 2.28 2.20 2.01 1.81 1.74 1.60
0.82 0.99 1.03 1.07 1.20 1.35 1.48 1.60 1.87 2.09 2.17 2.14 2.15 2.22 2.24 2.21 2.03 1.97 2.03 1.95 1.79 1.59 1.42 1.46 1.66 1.73 1.77 1.79 1.84 1.85 1.79 1.87 1.97 2.02 2.04 2.20 2.23 2.17 2.26 2.13 1.94 1.84 1.59
0.64 0.82 0.81 0.85 0.95 0.99 1.09 1.28 1.48 1.66 1.77 1.86 1.94 2.01 2.21 2.16 1.93 1.72 1.76 1.74 1.58 1.49 1.49 1.46 1.72 1.81 1.79 1.77 1.86 1.83 1.82 1.93 2.00 2.02 2.06 2.12 2.09 2.10 2.28 2.32 2.05 1.91 1.72
0.57 0.62 0.57 0.59 0.74 0.80 0.88 1.04 1.18 1.27 1.38 1.61 1.83 1.83 1.97 1.84 1.71 1.82 1.71 1.61 1.41 1.44 1.64 1.75 1.77 1.74 1.78 1.79 2.01 1.87 1.89 1.97 2.00 1.92 2.23 2.19 2.06 2.26 2.47 2.63 2.66 2.34 2.11
0.53 0.51 0.45 0.46 0.50 0.55 0.62 0.80 1.07 1.17 1.21 1.30 1.52 1.63 1.63 1.65 1.73 1.87 1.81 1.68 1.59 1.47 1.65 1.80 1.88 1.80 1.78 1.87 2.08 2.03 2.07 2.17 2.08 2.08 2.31 2.26 2.16 2.22 2.29 2.57 2.85 2.88 2.61
0.60 0.63 0.47 0.42 0.45 0.44 0.52 0.64 0.82 1.03 1.21 1.21 1.21 1.26 1.51 1.58 1.70 1.75 1.65 1.64 1.61 1.61 1.68 1.64 1.68 1.68 1.66 1.78 2.09 2.09 2.13 2.30 2.24 2.21 2.25 2.27 2.18 2.25 2.25 2.38 2.72 3.00 3.02
0.53 0.59 0.42 0.35 0.38 0.42 0.49 0.62 0.76 1.04 1.24 1.15 1.17 1.28 1.44 1.54 1.60 1.75 1.73 1.67 1.65 1.69 1.64 1.58 1.62 1.60 1.51 1.58 1.77 1.88 2.07 2.20 2.26 2.24 2.28 2.28 2.39 2.43 2.33 2.43 2.56 2.77 2.94
0.55 0.58 0.50 0.50 0.52 0.56 0.60 0.72 0.84 1.02 1.13 1.15 1.22 1.28 1.38 1.45 1.50 1.56 1.64 1.71 1.69 1.74 1.71 1.66 1.63 1.52 1.50 1.58 1.69 1.83 2.00 2.14 2.25 2.36 2.44 2.24 2.32 2.44 2.38 2.39 2.42 2.53 2.80
0.65 0.61 0.64 0.72 0.69 0.71 0.81 0.89 0.97 1.03 1.14 1.27 1.27 1.23 1.29 1.27 1.33 1.42 1.48 1.60 1.66 1.70 1.75 1.77 1.69 1.64 1.67 1.74 1.79 1.85 1.99 2.11 2.18 2.29 2.28 2.22 2.35 2.27 2.31 2.38 2.37 2.37 2.44
0.67 0.57 0.64 0.69 0.73 0.75 0.85 0.96 1.00 1.03 1.12 1.16 1.20 1.23 1.23 1.26 1.36 1.44 1.47 1.52 1.49 1.55 1.59 1.60 1.68 1.72 1.76 1.80 1.79 1.78 1.81 1.88 1.95 1.94 1.85 1.79 1.85 1.94 2.10 2.11 2.12 2.20 2.27
0.65 0.53 0.55 0.63 0.73 0.79 0.80 0.85 0.94 1.02 1.17 1.18 1.15 1.20 1.27 1.29 1.33 1.34 1.34 1.37 1.43 1.45 1.62 1.65 1.72 1.78 1.75 1.66 1.70 1.69 1.60 1.77 1.74 1.61 1.56 1.57 1.66 1.69 1.77 1.71 1.80 1.98 2.05
0.62 0.60 0.66 0.73 0.73 0.72 0.72 0.75 0.76 0.87 1.05 1.16 1.25 1.32 1.31 1.24 1.29 1.30 1.28 1.31 1.42 1.52 1.61 1.66 1.77 1.81 1.67 1.70 1.72 1.72 1.69 1.74 1.70 1.64 1.57 1.45 1.45 1.44 1.48 1.51 1.57 1.71 1.84
0.55 0.63 0.70 0.74 0.74 0.73 0.69 0.69 0.70 0.81 1.09 1.18 1.21 1.36 1.44 1.35 1.40 1.43 1.43 1.44 1.47 1.59 1.66 1.79 1.85 1.81 1.85 1.75 1.60 1.62 1.60 1.65 1.69 1.71 1.69 1.42 1.25 1.35 1.34 1.46 1.44 1.41 1.47
0.53 0.62 0.64 0.65 0.68 0.70 0.72 0.71 0.73 0.80 1.04 1.21 1.29 1.52 1.67 1.57 1.58 1.59 1.62 1.67 1.73 1.76 1.87 1.89 1.78 1.72 1.76 1.69 1.43 1.35 1.27 1.39 1.50 1.58 1.64 1.62 1.52 1.48 1.49 1.55 1.55 1.48 1.45
0.62 0.64 0.68 0.71 0.77 0.85 0.87 0.87 0.96 1.06 1.20 1.33 1.47 1.70 1.90 1.95 1.92 1.85 1.94 2.01 2.00 1.98 2.03 2.06 2.00 1.87 1.84 1.67 1.36 1.23 1.17 1.31 1.39 1.45 1.45 1.44 1.35 1.36 1.29 1.32 1.39 1.41 1.37
0.67 0.79 0.90 0.90 0.94 1.01 1.00 1.04 1.15 1.35 1.49 1.53 1.56 1.71 1.90 1.97 1.95 1.95 2.14 2.27 2.23 2.16 2.19 2.07 1.94 1.85 1.83 1.77 1.46 1.28 1.20 1.33 1.41 1.50 1.48 1.45 1.38 1.35 1.21 1.16 1.24 1.23 1.23
0.71 0.77 0.80 0.93 1.05 1.14 1.20 1.32 1.36 1.44 1.49 1.53 1.57 1.69 1.90 2.18 2.13 2.15 2.24 2.32 2.33 2.34 2.35 2.25 2.14 1.99 1.95 1.92 1.60 1.41 1.31 1.40 1.45 1.39 1.39 1.38 1.36 1.17 1.08 1.05 1.09 1.13 1.12
0.76 0.76 0.76 0.87 1.05 1.25 1.43 1.49 1.47 1.50 1.60 1.61 1.60 1.69 1.94 2.05 2.10 2.23 2.27 2.36 2.45 2.43 2.39 2.38 2.24 2.19 2.12 1.87 1.61 1.42 1.38 1.44 1.51 1.49 1.45 1.42 1.29 1.05 0.95 0.85 0.82 0.86 0.84
0.85 0.86 0.87 0.94 1.06 1.23 1.44 1.60 1.62 1.62 1.58 1.55 1.52 1.61 1.76 1.86 2.00 2.09 2.02 2.07 2.18 2.17 2.20 2.22 2.17 2.21 2.30 2.16 1.73 1.42 1.32 1.36 1.45 1.58 1.64 1.45 1.27 1.12 0.98 0.91 0.83 0.76 0.72
1.01 1.01 1.05 1.08 1.13 1.21 1.38 1.54 1.54 1.57 1.56 1.48 1.43 1.54 1.75 1.86 1.93 1.99 1.97 2.02 2.08 2.13 2.19 2.21 2.14 2.14 2.27 2.26 1.94 1.60 1.40 1.30 1.27 1.29 1.30 1.22 1.15 1.04 0.92 0.84 0.76 0.68 0.71
1.02 1.02 1.06 1.11 1.11 1.16 1.36 1.50 1.51 1.56 1.62 1.58 1.53 1.61 1.73 1.82 1.96 2.02 2.05 2.05 2.05 2.02 2.02 2.01 1.95 1.94 2.04 2.05 1.83 1.60 1.45 1.32 1.27 1.25 1.27 1.24 1.23 1.13 1.04 0.97 0.92 0.91 0.93
1.03 1.06 1.13 1.15 1.12 1.16 1.28 1.40 1.56 1.71 1.75 1.69 1.65 1.61 1.59 1.67 1.74 1.79 1.74 1.68 1.63 1.61 1.55 1.53 1.44 1.42 1.58 1.57 1.32 1.18 1.20 1.19 1.14 1.12 1.17 1.24 1.28 1.23 1.16 1.11 1.06 1.07 1.06